TimeCST,TemperatureF,Dew PointF,Humidity,Sea Level PressureIn,VisibilityMPH,Wind Direction,Wind SpeedMPH,Gust SpeedMPH,PrecipitationIn,Events,Conditions,WindDirDegrees,DateUTC
12:15 AM,-4.0,-9.4,78,30.00,10.0,West,6.9,-,N/A,,Overcast,270,2013-01-21 06:15:00
12:35 AM,-4.0,-9.4,78,29.99,10.0,West,8.1,-,N/A,,Overcast,270,2013-01-21 06:35:00
12:55 AM,-4.0,-9.4,78,29.99,10.0,West,5.8,-,N/A,,Overcast,260,2013-01-21 06:55:00
1:15 AM,-4.0,-9.4,78,29.98,10.0,West,6.9,-,N/A,,Overcast,270,2013-01-21 07:15:00
1:35 AM,-4.0,-9.4,78,29.98,10.0,West,4.6,-,N/A,,Overcast,270,2013-01-21 07:35:00
1:55 AM,-4.0,-9.4,78,29.98,10.0,West,5.8,-,N/A,,Overcast,280,2013-01-21 07:55:00
2:15 AM,-4.0,-9.4,78,29.97,7.0,West,8.1,16.1,N/A,,Overcast,280,2013-01-21 08:15:00
2:35 AM,-4.0,-9.4,78,29.97,7.0,West,6.9,-,N/A,,Overcast,270,2013-01-21 08:35:00
2:55 AM,-5.8,-11.2,77,29.97,10.0,West,10.4,-,N/A,,Mostly Cloudy,270,2013-01-21 08:55:00
3:35 AM,-5.8,-11.2,77,29.96,10.0,West,8.1,-,N/A,,Overcast,280,2013-01-21 09:35:00
3:55 AM,-5.8,-13.0,71,29.96,7.0,West,11.5,16.1,N/A,,Overcast,280,2013-01-21 09:55:00
4:15 AM,-5.8,-13.0,71,29.96,10.0,WNW,11.5,-,N/A,,Overcast,290,2013-01-21 10:15:00
4:35 AM,-7.6,-13.0,77,29.96,10.0,West,6.9,-,N/A,,Overcast,280,2013-01-21 10:35:00
4:55 AM,-7.6,-14.8,71,29.96,10.0,West,11.5,-,N/A,,Overcast,280,2013-01-21 10:55:00
5:15 AM,-7.6,-14.8,71,29.95,10.0,WNW,11.5,16.1,N/A,,Overcast,290,2013-01-21 11:15:00
5:35 AM,-9.4,-14.8,77,29.96,10.0,WNW,9.2,-,N/A,,Overcast,290,2013-01-21 11:35:00
6:15 AM,-9.4,-16.6,71,29.96,10.0,West,10.4,-,N/A,,Overcast,280,2013-01-21 12:15:00
6:35 AM,-9.4,-16.6,71,29.96,10.0,WNW,9.2,16.1,N/A,,Overcast,290,2013-01-21 12:35:00
6:55 AM,-9.4,-16.6,71,29.96,10.0,West,10.4,17.3,N/A,,Overcast,280,2013-01-21 12:55:00
7:15 AM,-11.2,-18.4,70,29.96,10.0,West,8.1,-,N/A,,Overcast,280,2013-01-21 13:15:00
7:35 AM,-11.2,-18.4,70,29.96,5.0,WNW,9.2,-,N/A,,Haze,290,2013-01-21 13:35:00
7:55 AM,-13.0,-18.4,77,29.97,10.0,WNW,10.4,17.3,N/A,,Scattered Clouds,290,2013-01-21 13:55:00
8:15 AM,-13.0,-18.4,77,29.97,10.0,West,9.2,19.6,N/A,,Clear,270,2013-01-21 14:15:00
8:35 AM,-13.0,-20.2,70,29.98,10.0,West,10.4,18.4,N/A,,Clear,280,2013-01-21 14:35:00
8:55 AM,-13.0,-20.2,70,29.98,7.0,West,11.5,17.3,N/A,,Scattered Clouds,280,2013-01-21 14:55:00
9:15 AM,-11.2,-20.2,64,29.99,5.0,WNW,9.2,-,N/A,,Haze,290,2013-01-21 15:15:00
9:35 AM,-11.2,-20.2,64,30.00,5.0,WNW,12.7,18.4,N/A,,Haze,290,2013-01-21 15:35:00
9:55 AM,-11.2,-20.2,64,30.01,5.0,WNW,9.2,17.3,N/A,,Haze,290,2013-01-21 15:55:00
10:15 AM,-11.2,-20.2,64,30.01,5.0,West,11.5,19.6,N/A,,Haze,280,2013-01-21 16:15:00
10:35 AM,-9.4,-22.0,54,30.01,7.0,WNW,9.2,19.6,N/A,,Overcast,290,2013-01-21 16:35:00
11:15 AM,-9.4,-20.2,59,30.01,7.0,WNW,6.9,17.3,N/A,,Overcast,300,2013-01-21 17:15:00
11:35 AM,-9.4,-20.2,59,30.01,10.0,WNW,12.7,18.4,N/A,,Overcast,290,2013-01-21 17:35:00
11:55 AM,-9.4,-22.0,54,30.01,10.0,West,12.7,18.4,N/A,,Overcast,280,2013-01-21 17:55:00
12:15 PM,-9.4,-22.0,54,30.00,7.0,WNW,9.2,21.9,N/A,,Overcast,290,2013-01-21 18:15:00
12:35 PM,-9.4,-22.0,54,30.00,10.0,WNW,10.4,19.6,N/A,,Overcast,290,2013-01-21 18:35:00
12:55 PM,-9.4,-22.0,54,30.00,5.0,West,11.5,21.9,N/A,,Haze,270,2013-01-21 18:55:00
1:15 PM,-9.4,-22.0,54,30.00,10.0,West,16.1,-,N/A,,Overcast,280,2013-01-21 19:15:00
1:35 PM,-9.4,-22.0,54,29.99,10.0,WNW,10.4,19.6,N/A,,Overcast,290,2013-01-21 19:35:00
1:55 PM,-9.4,-22.0,54,29.99,10.0,WNW,9.2,19.6,N/A,,Overcast,290,2013-01-21 19:55:00
2:15 PM,-9.4,-23.8,49,29.99,10.0,WNW,8.1,18.4,N/A,,Overcast,290,2013-01-21 20:15:00
2:35 PM,-9.4,-23.8,49,30.00,10.0,WNW,17.3,21.9,N/A,,Overcast,290,2013-01-21 20:35:00
2:55 PM,-9.4,-23.8,49,30.00,10.0,West,10.4,-,N/A,,Overcast,280,2013-01-21 20:55:00
3:15 PM,-9.4,-23.8,49,30.01,10.0,West,11.5,19.6,N/A,,Overcast,280,2013-01-21 21:15:00
3:35 PM,-11.2,-23.8,54,30.02,10.0,WNW,11.5,17.3,N/A,,Overcast,290,2013-01-21 21:35:00
4:15 PM,-11.2,-23.8,54,30.02,10.0,West,9.2,18.4,N/A,,Overcast,270,2013-01-21 22:15:00
4:35 PM,-13.0,-23.8,59,30.02,10.0,West,5.8,-,N/A,,Overcast,270,2013-01-21 22:35:00
5:15 PM,-13.0,-22.0,64,30.02,10.0,West,10.4,-,N/A,,Overcast,270,2013-01-21 23:15:00
5:35 PM,-13.0,-22.0,64,30.03,10.0,West,10.4,16.1,N/A,,Overcast,270,2013-01-21 23:35:00
5:55 PM,-13.0,-22.0,64,30.03,10.0,West,8.1,17.3,N/A,,Overcast,280,2013-01-21 23:55:00
6:15 PM,-13.0,-22.0,64,30.03,7.0,West,8.1,16.1,N/A,,Overcast,270,2013-01-22 00:15:00
6:35 PM,-13.0,-22.0,64,30.03,10.0,West,8.1,16.1,N/A,,Overcast,270,2013-01-22 00:35:00
6:55 PM,-13.0,-22.0,64,30.03,10.0,West,9.2,-,N/A,,Overcast,270,2013-01-22 00:55:00
7:15 PM,-13.0,-22.0,64,30.03,7.0,West,9.2,-,N/A,,Overcast,270,2013-01-22 01:15:00
7:35 PM,-13.0,-20.2,70,30.03,7.0,West,9.2,-,N/A,,Overcast,270,2013-01-22 01:35:00
7:55 PM,-13.0,-20.2,70,30.03,5.0,West,10.4,-,N/A,,Haze,270,2013-01-22 01:55:00
8:15 PM,-11.2,-18.4,70,30.03,4.0,West,9.2,-,N/A,,Haze,270,2013-01-22 02:15:00
8:35 PM,-11.2,-18.4,70,30.03,4.0,West,8.1,-,N/A,,Haze,280,2013-01-22 02:35:00
8:55 PM,-11.2,-18.4,70,30.03,3.0,West,6.9,-,N/A,,Haze,270,2013-01-22 02:55:00
9:15 PM,-11.2,-18.4,70,30.03,2.5,West,10.4,-,N/A,,Haze,270,2013-01-22 03:15:00
9:35 PM,-11.2,-18.4,70,30.03,2.5,West,9.2,-,N/A,,Haze,270,2013-01-22 03:35:00
9:55 PM,-11.2,-16.6,77,30.04,3.0,West,9.2,17.3,N/A,,Haze,270,2013-01-22 03:55:00
10:15 PM,-11.2,-16.6,77,30.03,2.0,West,8.1,-,N/A,,Haze,280,2013-01-22 04:15:00
10:35 PM,-11.2,-16.6,77,30.03,2.5,West,6.9,16.1,N/A,,Haze,270,2013-01-22 04:35:00
10:55 PM,-11.2,-16.6,77,30.03,2.5,West,9.2,-,N/A,,Haze,270,2013-01-22 04:55:00
11:15 PM,-11.2,-16.6,77,30.04,2.5,West,5.8,-,N/A,,Haze,270,2013-01-22 05:15:00
11:35 PM,-11.2,-16.6,77,30.04,2.5,West,8.1,-,N/A,,Haze,270,2013-01-22 05:35:00
11:55 PM,-13.0,-18.4,77,30.04,3.0,West,8.1,-,N/A,,Haze,270,2013-01-22 05:55:00